Regional Weather Roundup
Issued by NWS

Home | Current Version | Previous Version | Graphics & Text | Print | Product List | Glossary On
Versions: 1 2 3 4 5 6 7 8 9 10 11 12 13 14 15 16 17 18 19 20 21 22 23 24 25 26 27 28 29 30 31 32 33 34 35 36 37 38 39 40 41 42 43 44 45 46 47 48 49 50
000
ASUS43 KTOP 131108
RWRKS

WEATHER ROUNDUP FOR KANSAS
NATIONAL WEATHER SERVICE GOODLAND KS
600 AM CDT SUN JUL 13 2014

NOTE:  "FAIR" INDICATES FEW OR NO CLOUDS BELOW 12,000 FEET WITH NO
SIGNIFICANT WEATHER AND/OR OBSTRUCTIONS TO VISIBILITY.

KSZ001>006-013>018-027>032-041>047-131200-
NORTHWEST KANSAS

CITY           SKY/WX    TMP DP  RH WIND       PRES   REMARKS
GOODLAND       CLOUDY    65  61  87 CALM      30.23F
HAYS           CLOUDY    70  63  78 NW15      30.11F
HILL CITY      CLOUDY    70  66  87 NW6       30.16S
RUSSELL        CLOUDY    70  65  84 N14       30.09R
$$

KSZ061>065-074>080-084>089-131200-
SOUTHWEST KANSAS

CITY           SKY/WX    TMP DP  RH WIND       PRES   REMARKS
DODGE CITY     MOCLDY    71  65  81 N14       30.14R
ELKHART          N/A     68  60  75 NW7         N/A
GARDEN CITY    CLOUDY    69  63  81 NE12      30.15S
GREAT BEND     CLOUDY    73  68  83 NW8       30.09R
LIBERAL        MOCLDY    70  61  73 NW8       30.19R
PRATT          CLOUDY    72  70  94 NW13      30.08R
$$

KSZ066>073-081>083-090>101-131200-
SOUTHEAST KANSAS

CITY           SKY/WX    TMP DP  RH WIND       PRES   REMARKS
CHANUTE        PTCLDY    71  61  70 S6        30.02R
COFFEYVILLE    CLEAR     70  63  78 S5        30.02R
HUTCHINSON     MOCLDY    73  63  70 NW5       30.00R
MEDICINE LODGE   N/A     73  60  63 NW8       30.04R
NEWTON         CLOUDY    75  54  46 SW9       30.04R
PARSONS        CLEAR     70  62  76 S3        30.03R
WICHITA INTL   MOCLDY    71  60  68 S8        30.00S
WICHITA JABRA  CLOUDY    76  59  55 SW13      30.00S
WICHITA MCCONL CLOUDY    74  60  60 S10       30.02R
WINFIELD       PTCLDY    69  61  75 S6        30.03S
$$

KSZ007>012-019>026-033>040-048>060-102>105-131200-
NORTHEAST KANSAS

CITY           SKY/WX    TMP DP  RH WIND       PRES   REMARKS
CONCORDIA      CLOUDY    70  68  93 N8        30.05R
EMPORIA        MOCLDY    72  64  76 NE8       30.02R
LAWRENCE       CLOUDY    73  68  84 E6        30.03S
MANHATTAN      LGT RAIN  73  69  87 NE10      30.00F
MARYSVILLE     CLOUDY    68  66  94 CALM      30.04R
OLATHE IND     CLOUDY    75  67  76 NE12      30.05R
OLATHE EXE     CLOUDY    75  66  73 N12       30.04R
SALINA         MOCLDY    74  68  81 N8        30.02S
TOPEKA BILLARD CLOUDY    74  71  91 NE3       30.03R
TOPEKA FORBES  CLOUDY    73  71  93 E6        30.03R
$$



USA.gov is the U.S. government's official web portal to all federal, state and local government web resources and services.